CST,Max TemperatureF,Mean TemperatureF,Min TemperatureF,Max Dew PointF,MeanDew PointF,Min DewpointF,Max Humidity, Mean Humidity, Min Humidity, Max Sea Level PressureIn, Mean Sea Level PressureIn, Min Sea Level PressureIn, Max VisibilityMiles, Mean VisibilityMiles, Min VisibilityMiles, Max Wind SpeedMPH, Mean Wind SpeedMPH, Max Gust SpeedMPH,PrecipitationIn, CloudCover, Events, WindDirDegrees
2013-11-1,53,46,39,41,39,37,100,81,54,29.88,29.69,29.48,10,10,6,20,11,28,0.00,6,Rain,308
2013-11-2,53,44,35,41,36,32,100,80,47,30.10,30.04,29.89,10,10,5,15,10,21,0.00,3,,312
2013-11-3,55,45,35,36,32,28,87,64,36,30.09,29.94,29.78,10,10,10,37,17,50,0.00,0,,156
2013-11-4,51,42,30,46,38,28,93,77,54,30.16,29.94,29.82,10,10,9,26,16,32,0.00,3,,201
2013-11-5,41,34,26,39,34,27,100,98,87,30.19,30.06,29.90,10,6,2,29,8,37,0.92,5,Rain,25
2013-11-6,41,34,28,34,28,18,100,82,42,30.20,30.11,29.93,10,10,3,24,15,33,0.00,3,Rain,309
2013-11-7,41,34,28,34,29,21,100,86,45,30.29,30.24,30.19,10,9,0,16,10,18,0.00,3,Fog,275
2013-11-8,53,40,26,41,32,23,93,73,54,30.21,29.91,29.68,10,10,9,32,13,43,0.00,2,,187
2013-11-9,50,41,32,39,35,27,93,78,58,30.29,30.02,29.76,10,10,10,25,15,31,0.00,2,,287
2013-11-10,41,32,23,32,29,21,100,81,65,30.38,30.26,30.10,10,10,10,15,10,18,0.00,3,,229
2013-11-11,39,26,12,34,19,7,100,81,64,30.70,30.40,30.08,10,9,0,25,15,41,0.00,4,Rain-Snow,349
2013-11-12,26,16,5,14,9,1,85,74,55,30.80,30.68,30.47,10,10,9,14,8,,0.00,0,,262
2013-11-13,51,35,19,32,23,12,75,64,44,30.47,30.15,29.93,10,10,10,28,17,34,0.00,0,,202
2013-11-14,50,40,30,41,33,27,100,81,62,29.93,29.87,29.82,10,10,3,14,10,16,0.00,2,,222
2013-11-15,55,42,28,41,35,28,100,83,58,29.86,29.78,29.63,10,9,5,18,8,23,0.00,0,,175
2013-11-16,62,50,39,57,44,32,100,88,61,29.61,29.40,29.22,10,8,3,29,17,34,0.00,4,,178
2013-11-17,48,42,35,43,36,30,100,83,61,29.91,29.56,29.34,10,10,4,23,10,32,0.12,4,Rain,287
2013-11-18,42,35,28,36,29,27,100,80,53,30.23,30.13,29.91,10,10,6,20,10,26,0.00,1,,323
2013-11-19,50,39,28,37,32,28,100,76,58,30.23,30.04,29.90,10,9,7,29,16,39,0.00,2,,149
2013-11-20,44,40,35,37,34,30,100,76,57,29.99,29.89,29.84,10,10,3,29,19,36,0.00,6,,154
2013-11-21,35,27,19,36,35,34,100,99,93,30.48,30.24,30.01,10,6,0,24,13,32,0.00,8,Fog-Rain-Snow,350
2013-11-22,32,19,6,,,,,,,30.60,30.54,30.49,10,10,2,22,12,33,0.00,1,Snow,315
2013-11-23,17,11,5,,,,,,,30.81,30.73,30.60,10,10,9,22,13,29,0.00,0,,340
2013-11-24,28,16,5,14,7,-8,78,59,39,30.69,30.39,30.08,10,10,10,28,14,37,0.00,1,,193
2013-11-25,42,33,24,28,21,5,74,61,40,30.11,30.05,30.00,10,10,10,26,17,31,0.00,5,,271
2013-11-26,33,22,12,21,9,3,73,56,40,30.35,30.24,30.10,10,10,10,28,16,39,0.00,4,,340
2013-11-27,26,16,5,12,7,0,79,67,43,30.35,30.20,29.99,10,10,9,21,9,25,0.00,0,,184
2013-11-28,30,20,10,14,9,3,79,64,47,30.47,30.27,29.99,10,10,9,18,9,25,0.00,0,,333
2013-11-29,35,22,8,23,14,1,79,69,52,30.47,30.32,30.10,10,10,9,24,9,29,0.00,0,,165
2013-11-30,48,36,23,28,25,21,93,70,46,30.14,30.07,30.03,10,10,7,15,11,14,0.00,0,,293